[[{"header":{"parameterUnit":"m.s-1","parameterCategory":1,"la1":30.2991,"la2":30.254,"lo1":-89.0895,"lo2":-89.0444,"dy":0.0017,"dx":0.0017,"nx":28,"ny":28,"refTime":"2025-11-27T03:00:00:Z","depth":0,"parameterNumber":2,"parameterNumberName":"U-component_of_WINDS"},"data":[0,0,0,0,0,0,0,0,0,0,0,0,0,0,0,0,0,0,0,0,0,0,0,0,0,0,0,0,0,0,0,0,0,0,0,0,0,0,0,0,0,0,0,0,0,0,0,0,0,0,0,0,0,0,0,0,0,0,-2.6392,-2.6393,0,-2.6424,-2.6425,-2.6425,-2.6357,-2.6355,-2.6353,-2.6351,-2.6384,-2.6387,-2.639,0,0,0,0,0,0,0,0,0,0,0,0,0,-2.6271,-2.6274,-2.6392,-2.6393,-2.6393,-2.6424,-2.6425,-2.6425,-2.6357,-2.6355,-2.6352,-2.635,-2.6383,-2.6386,-2.639,0,0,0,0,0,0,0,0,0,0,0,0,0,-2.6316,-2.6275,-2.6392,-2.6363,-2.6361,-2.6424,-2.6425,-2.6425,-2.6358,-2.6355,-2.6351,-2.6348,-2.6382,-2.6386,-2.639,-2.6484,0,0,-2.6404,-2.6406,0,0,0,0,0,0,0,0,-2.6313,-2.632,-2.6367,-2.6365,-2.6363,-2.6383,-2.6394,-2.6445,-2.6359,-2.6359,-2.6351,-2.6347,-2.6386,-2.639,-2.6404,-2.6486,-2.6487,-2.6404,-2.6407,-2.6409,-2.641,0,0,0,0,0,0,0,-2.631,-2.6319,-2.6405,-2.6368,-2.6365,-2.6348,-2.6351,-2.6404,-2.6391,-2.6359,-2.6354,-2.6359,-2.6385,-2.6399,-2.6404,-2.6487,-2.6404,-2.6408,-2.6411,-2.6413,-2.6648,-2.6651,0,0,0,0,0,0,-2.6311,-2.6317,-2.6404,-2.6406,-2.6329,-2.6353,-2.6356,-2.638,-2.639,-2.6389,-2.6361,-2.6355,-2.6394,-2.6399,-2.6405,-2.6516,-2.6409,-2.6413,-2.6416,-2.6644,-2.6649,-2.6653,0,0,0,0,0,0,-2.6309,-2.632,-2.6403,-2.636,-2.6369,-2.6359,-2.6386,-2.6382,-2.6397,-2.6392,-2.639,-2.6379,-2.6391,-2.6399,-2.6465,-2.6516,-2.6415,-2.6419,-2.664,-2.6646,-2.6651,-2.6738,0,0,0,0,0,0,-2.6306,-2.6319,-2.6355,-2.6361,-2.6372,-2.6463,-2.6389,-2.6385,-2.6405,-2.6397,-2.6408,-2.6407,-2.6389,-2.6459,-2.6469,-2.652,-2.6422,-2.6636,-2.6643,-2.6649,-2.6731,-2.6746,-2.6759,0,0,0,0,0,-2.6302,-2.6378,-2.6357,-2.6368,-2.6416,-2.6466,-2.6472,-2.645,-2.6409,-2.6445,-2.6442,-2.6406,-2.6508,-2.6466,-2.6477,-2.653,-2.6632,-2.6641,-2.6648,-2.6724,-2.6743,-2.6758,0,0,0,0,0,0,-2.6378,-2.6378,-2.6355,-2.6436,-2.6451,-2.6454,-2.6499,-2.647,-2.6498,-2.6489,-2.6461,-2.6464,-2.6536,-2.6539,-2.6492,-2.6621,-2.6563,-2.6574,-2.6617,-2.6635,-2.6648,-2.6647,-2.6426,0,0,0,0,0,-2.6405,-2.6445,-2.6443,-2.6514,-2.6523,-2.651,-2.6531,-2.6512,-2.6527,-2.6533,-2.6535,-2.6551,-2.6586,-2.661,-2.6642,-2.673,-2.6732,-2.6772,-2.6786,-2.6797,-2.6808,-2.6855,-2.6873,-2.6679,-2.6679,-2.6679,0,0,-2.646,-2.6464,-2.6492,-2.653,-2.654,-2.6582,-2.6516,-2.6563,-2.6595,-2.654,-2.6604,-2.6605,-2.6621,-2.6698,-2.6732,-2.6703,-2.6861,-2.6808,-2.6817,-2.6821,-2.6865,-2.6883,-2.69,-2.6685,-2.6684,-2.6683,0,0,-2.6582,-2.6589,-2.665,-2.6661,-2.6676,-2.6667,-2.6681,-2.6688,-2.6688,-2.675,-2.671,-2.6747,-2.6808,-2.6821,-2.6836,-2.6962,-2.6931,-2.6973,-2.7047,-2.7094,-2.7109,-2.7122,-2.7169,-2.7185,-2.6983,-2.6983,-2.6983,0,-2.6648,-2.6711,-2.6685,-2.6736,-2.6754,-2.6706,-2.6767,-2.6779,-2.6805,-2.6818,-2.6785,-2.6861,-2.6868,-2.6948,-2.6979,-2.6992,-2.7008,-2.6973,-2.7109,-2.7122,-2.7134,-2.7178,-2.7195,-2.6988,-2.6988,-2.6987,-2.6987,0,-2.6792,-2.6836,-2.6883,-2.691,-2.6932,-2.6988,-2.6971,-2.6997,-2.6976,-2.697,-2.7035,-2.7041,-2.7074,-2.7091,-2.7072,-2.7169,-2.715,-2.7113,-2.7055,-2.7158,-2.7199,-2.7215,-2.6996,-2.6994,-2.6992,-2.6991,0,0,-2.6966,-2.6976,-2.6994,-2.7005,-2.7018,-2.7052,-2.7105,-2.7137,-2.7161,-2.7179,-2.7224,-2.7276,-2.7242,-2.7259,-2.724,-2.728,-2.7381,-2.7238,-2.7238,-2.7265,-2.7489,-2.7518,-2.7538,-2.7359,-2.7362,-2.7364,-2.7488,0,-2.7088,-2.7181,-2.7158,-2.725,-2.729,-2.7245,-2.7291,-2.7304,-2.7299,-2.7333,-2.7327,-2.7366,-2.7317,-2.7327,-2.7364,-2.7361,-2.7425,-2.7351,-2.7401,-2.7403,-2.7401,-2.7559,-2.759,-2.7707,-2.7504,-2.7507,-2.7508,0,-2.7244,-2.7268,-2.7364,-2.737,-2.7387,-2.7429,-2.7457,-2.7489,-2.7502,-2.7496,-2.7514,-2.7487,-2.754,-2.7479,-2.7551,-2.7501,-2.752,-2.7521,-2.7525,-2.753,-2.7464,-2.7571,-2.7744,-2.7762,-2.7533,-2.7531,-2.7529,0,-2.7363,-2.7419,-2.7484,-2.7495,-2.7504,-2.7534,-2.7539,-2.755,-2.757,-2.7594,-2.7607,-2.7637,-2.7653,-2.7677,-2.7658,-2.7615,-2.7734,-2.7671,-2.7731,-2.7732,-2.776,-2.7759,-2.794,-2.7769,-2.7769,-2.7768,-2.7768,0,-2.7503,-2.7563,-2.7538,-2.7578,-2.7644,-2.7617,-2.7684,-2.7683,-2.7693,-2.7732,-2.7693,-2.7731,-2.7703,-2.7738,-2.7724,-2.7786,-2.7794,-2.779,-2.7786,-2.7795,-2.7796,-2.7808,-2.7801,-2.7773,-2.7772,-2.7771,-2.777,0,-2.7648,-2.7633,-2.7701,-2.7703,-2.7705,-2.7754,-2.7756,-2.7793,-2.7784,-2.7835,-2.7845,-2.7832,-2.7871,-2.7854,-2.7895,-2.7886,-2.7967,-2.7951,-2.7963,-2.7959,-2.802,-2.8015,-2.8218,-2.8243,-2.8054,-2.8056,-2.8057,0,-2.7739,-2.7785,-2.7792,-2.7815,-2.7823,-2.7861,-2.7882,-2.7857,-2.788,-2.7898,-2.7933,-2.7969,-2.7997,-2.8061,-2.8056,-2.8087,-2.8072,-2.8141,-2.8077,-2.8085,-2.8075,-2.8074,-2.8078,-2.8155,-2.8157,-2.8159,-2.816,0,-2.7904,-2.7894,-2.7925,-2.7955,-2.7981,-2.8002,-2.802,-2.8042,-2.8017,-2.8045,-2.8085,-2.8106,-2.8148,-2.8184,-2.8211,-2.8216,-2.8185,-2.818,-2.8196,-2.8206,-2.8212,-2.8211,-2.7999,-2.8176,-2.8175,-2.8173,-2.8172,-2.8172,-2.8026,-2.8064,-2.8076,-2.8112,-2.8123,-2.8141,-2.8176,-2.8172,-2.8204,-2.8237,-2.8219,-2.8265,-2.8277,-2.831,-2.8319,-2.8355,-2.8328,-2.835,-2.8356,-2.8363,-2.8372,-2.8205,-2.836,-2.8359,-2.8359,-2.8358,-2.8358,0,-2.8189,-2.8194,-2.8228,-2.8255,-2.8283,-2.825,-2.8268,-2.8295,-2.8336,-2.8349,-2.8377,-2.8422,-2.8457,-2.8453,-2.8485,-2.8514,-2.8501,-2.8524,-2.8522,-2.8524,-2.8393,-2.8377,-2.8534,-2.8534,-2.8534,-2.8534,-2.8534,-2.8534,-2.8278,-2.8342,-2.8334,-2.8402,-2.8406,-2.8451,-2.8465,-2.8481,-2.8491,-2.8544,-2.8573,-2.857,-2.8576,-2.8608,-2.8638,-2.8636,-2.8651,-2.8679,-2.8672,-2.8551,-2.8533,-2.8517,-2.8502,-2.8682,-2.8682,-2.88,-2.8802,-2.8802]},{"header":{"parameterUnit":"m.s-1","parameterCategory":1,"la1":30.2991,"la2":30.254,"lo1":-89.0895,"lo2":-89.0444,"dy":0.0017,"dx":0.0017,"nx":28,"ny":28,"refTime":"2025-11-27T03:00:00:Z","depth":0,"parameterNumber":3,"parameterNumberName":"V-component_of_WINDS"},"data":[0,0,0,0,0,0,0,0,0,0,0,0,0,0,0,0,0,0,0,0,0,0,0,0,0,0,0,0,0,0,0,0,0,0,0,0,0,0,0,0,0,0,0,0,0,0,0,0,0,0,0,0,0,0,0,0,0,0,-6.6154,-6.6154,0,-6.6233,-6.6234,-6.6235,-6.6166,-6.6164,-6.6161,-6.6158,-6.6234,-6.6238,-6.6243,0,0,0,0,0,0,0,0,0,0,0,0,0,-6.5937,-6.5941,-6.6153,-6.6154,-6.6156,-6.6233,-6.6234,-6.6235,-6.6167,-6.6163,-6.616,-6.6157,-6.6232,-6.6238,-6.6243,0,0,0,0,0,0,0,0,0,0,0,0,0,-6.6025,-6.5943,-6.6153,-6.6131,-6.613,-6.6233,-6.6234,-6.6235,-6.6168,-6.6163,-6.6159,-6.6155,-6.623,-6.6237,-6.6244,-6.6371,0,0,-6.6265,-6.6268,0,0,0,0,0,0,0,0,-6.602,-6.6033,-6.6133,-6.6133,-6.6132,-6.6186,-6.6185,-6.6281,-6.6169,-6.6153,-6.6158,-6.6153,-6.6221,-6.6228,-6.6252,-6.6375,-6.6378,-6.6266,-6.627,-6.6273,-6.6275,0,0,0,0,0,0,0,-6.6014,-6.6029,-6.6185,-6.6135,-6.6134,-6.6115,-6.6123,-6.6203,-6.6209,-6.6154,-6.6149,-6.616,-6.6219,-6.6246,-6.6253,-6.6379,-6.6266,-6.6272,-6.6276,-6.6279,-6.661,-6.6614,0,0,0,0,0,0,-6.6011,-6.6025,-6.6182,-6.6187,-6.6065,-6.6122,-6.6131,-6.6172,-6.6208,-6.621,-6.6164,-6.6157,-6.6236,-6.6245,-6.6256,-6.6407,-6.6273,-6.6279,-6.6283,-6.6605,-6.6611,-6.6616,0,0,0,0,0,0,-6.6007,-6.6026,-6.6179,-6.6105,-6.6123,-6.6131,-6.6177,-6.6176,-6.6202,-6.6216,-6.6216,-6.619,-6.6233,-6.6246,-6.6343,-6.6409,-6.6283,-6.6289,-6.66,-6.6607,-6.6613,-6.6712,0,0,0,0,0,0,-6.6001,-6.6025,-6.6075,-6.6106,-6.6127,-6.6267,-6.6181,-6.6181,-6.6215,-6.6207,-6.624,-6.6241,-6.6231,-6.6333,-6.635,-6.6416,-6.6294,-6.6594,-6.6603,-6.6611,-6.6703,-6.6721,-6.6737,0,0,0,0,0,-6.5993,-6.6098,-6.6077,-6.6097,-6.619,-6.6271,-6.6283,-6.627,-6.6221,-6.627,-6.6278,-6.624,-6.6399,-6.6344,-6.6362,-6.6432,-6.6589,-6.66,-6.661,-6.6695,-6.6717,-6.6737,0,0,0,0,0,0,-6.6071,-6.6101,-6.6079,-6.6197,-6.6233,-6.626,-6.6321,-6.6294,-6.6342,-6.6332,-6.6312,-6.632,-6.6423,-6.6437,-6.6375,-6.6556,-6.6486,-6.6501,-6.6544,-6.6566,-6.6583,-6.6577,-6.63,0,0,0,0,0,-6.6102,-6.6168,-6.619,-6.6292,-6.6311,-6.6314,-6.6348,-6.6336,-6.637,-6.6384,-6.64,-6.6433,-6.649,-6.6529,-6.6582,-6.6704,-6.671,-6.676,-6.6778,-6.6792,-6.6805,-6.687,-6.6893,-6.665,-6.665,-6.6649,0,0,-6.6167,-6.6192,-6.6234,-6.6308,-6.6334,-6.6401,-6.6326,-6.64,-6.6449,-6.6395,-6.6488,-6.6501,-6.6537,-6.6647,-6.6696,-6.6662,-6.6873,-6.6805,-6.6816,-6.6821,-6.6883,-6.6906,-6.6927,-6.6657,-6.6656,-6.6654,0,0,-6.6319,-6.6345,-6.6433,-6.6461,-6.6501,-6.6502,-6.6523,-6.6555,-6.6562,-6.6656,-6.6617,-6.6673,-6.6773,-6.68,-6.6827,-6.699,-6.6957,-6.7008,-6.7098,-6.7162,-6.7181,-6.7198,-6.7256,-6.7277,-6.7021,-6.7021,-6.7021,0,-6.6394,-6.6495,-6.6481,-6.6558,-6.6592,-6.6548,-6.6636,-6.6663,-6.6718,-6.6742,-6.6702,-6.6826,-6.6847,-6.6964,-6.7004,-6.7027,-6.705,-6.7004,-6.718,-6.7197,-6.7212,-6.7267,-6.7289,-6.7027,-6.7026,-6.7026,-6.7025,0,-6.6585,-6.6655,-6.6721,-6.6779,-6.6819,-6.6902,-6.6899,-6.6941,-6.6925,-6.6929,-6.7025,-6.7049,-6.7107,-6.7133,-6.7117,-6.7247,-6.7225,-6.7183,-6.7112,-6.7242,-6.7293,-6.7314,-6.7035,-6.7033,-6.7031,-6.703,0,0,-6.6788,-6.6837,-6.6862,-6.6888,-6.6929,-6.6983,-6.7062,-6.7121,-6.7158,-6.7197,-6.7263,-6.7348,-6.731,-6.7341,-6.7327,-6.7383,-6.7511,-6.7334,-6.7335,-6.7367,-6.7656,-6.7688,-6.7713,-6.7489,-6.7493,-6.7496,-6.7653,0,-6.6942,-6.7084,-6.7074,-6.7206,-6.7271,-6.723,-6.7299,-6.7332,-6.7338,-6.7392,-6.7398,-6.7459,-6.7404,-6.7423,-6.7476,-6.7484,-6.7569,-6.7473,-6.7549,-6.7552,-6.7542,-6.774,-6.7774,-6.7921,-6.7674,-6.7677,-6.7679,0,-6.7141,-6.719,-6.733,-6.7363,-6.739,-6.7453,-6.7506,-6.7558,-6.7593,-6.7594,-6.7629,-6.7606,-6.7684,-6.7612,-6.7719,-6.7654,-6.7684,-6.7693,-6.7698,-6.7705,-6.7624,-6.7753,-6.7968,-6.799,-6.7711,-6.7709,-6.7706,0,-6.7277,-6.7377,-6.7474,-6.7497,-6.7537,-6.7582,-6.7601,-6.7632,-6.7668,-6.7713,-6.7736,-6.7789,-6.7819,-6.786,-6.7851,-6.7799,-6.7961,-6.7887,-6.7963,-6.7963,-6.7999,-6.7997,-6.8222,-6.8018,-6.8018,-6.8017,-6.8017,0,-6.745,-6.7537,-6.7535,-6.7595,-6.7691,-6.7678,-6.7772,-6.7785,-6.7813,-6.7873,-6.784,-6.7897,-6.7882,-6.7937,-6.793,-6.8021,-6.8033,-6.8035,-6.8033,-6.8039,-6.8039,-6.8059,-6.8048,-6.8023,-6.8022,-6.8021,-6.802,0,-6.7618,-6.762,-6.7723,-6.7753,-6.7763,-6.7832,-6.7857,-6.7913,-6.7916,-6.7993,-6.801,-6.8015,-6.8079,-6.8074,-6.8145,-6.8141,-6.8253,-6.8237,-6.8242,-6.8239,-6.8314,-6.8308,-6.8561,-6.8594,-6.8368,-6.837,-6.8372,0,-6.7729,-6.7795,-6.7834,-6.7873,-6.7895,-6.7958,-6.7995,-6.7984,-6.8023,-6.8069,-6.8119,-6.818,-6.8228,-6.8331,-6.834,-6.8395,-6.8381,-6.8466,-6.8388,-6.8393,-6.8382,-6.8379,-6.8385,-6.8481,-6.8484,-6.8486,-6.8487,0,-6.7926,-6.7924,-6.798,-6.8037,-6.8083,-6.8127,-6.8167,-6.82,-6.8192,-6.8238,-6.8304,-6.8342,-6.8416,-6.8477,-6.8528,-6.8545,-6.8515,-6.8512,-6.8532,-6.8539,-6.854,-6.8541,-6.8284,-6.8506,-6.8504,-6.8503,-6.8502,-6.8501,-6.8069,-6.8126,-6.8163,-6.8226,-6.8256,-6.8294,-6.8348,-6.8359,-6.8415,-6.8476,-6.8465,-6.8539,-6.8571,-6.8638,-6.866,-6.8716,-6.8685,-6.8715,-6.8722,-6.873,-6.8739,-6.853,-6.8725,-6.8725,-6.8724,-6.8724,-6.8723,0,-6.8265,-6.8287,-6.8345,-6.8403,-6.8453,-6.8423,-6.8465,-6.8508,-6.8575,-6.8609,-6.8658,-6.8733,-6.8792,-6.8806,-6.8862,-6.8905,-6.8892,-6.892,-6.8917,-6.8921,-6.8763,-6.874,-6.8929,-6.8929,-6.8929,-6.8929,-6.8929,-6.8929,-6.8373,-6.8469,-6.8471,-6.8581,-6.8601,-6.8675,-6.8702,-6.8737,-6.8764,-6.8851,-6.8901,-6.891,-6.8936,-6.8993,-6.9046,-6.9048,-6.907,-6.9103,-6.91,-6.8953,-6.8932,-6.8913,-6.8891,-6.9108,-6.9109,-6.9254,-6.9255,-6.9256]}]]